timestamp,wind_dir_avg,wind_spd_avg,wind_spd_max_dir,wind_spd_gust,battery_voltage,lat,long
2021-05-07 00:04:00+00:00,72.0,5.86,71.0,7.36,12.65,47.59359,-54.27349
2021-05-07 00:14:01+00:00,73.0,5.82,72.0,7.01,12.57,47.59359,-54.27349
2021-05-07 00:24:01+00:00,59.0,5.02,58.0,5.54,12.57,47.59359,-54.27349
2021-05-07 00:34:01+00:00,63.0,5.14,61.0,6.11,12.57,47.59359,-54.27349
2021-05-07 00:44:01+00:00,68.0,6.41,67.0,6.99,12.57,47.59359,-54.27349
2021-05-07 00:54:01+00:00,68.0,6.36,70.0,7.21,12.57,47.59359,-54.27349
2021-05-07 01:04:01+00:00,66.0,6.23,67.0,6.81,12.57,47.59359,-54.27349
2021-05-07 01:14:01+00:00,72.0,6.08,73.0,6.84,12.57,47.59359,-54.27349
2021-05-07 01:24:01+00:00,72.0,5.86,77.0,7.74,12.57,47.59359,-54.27349
2021-05-07 01:34:01+00:00,73.0,5.24,76.0,6.57,12.57,47.59359,-54.27349
2021-05-07 01:44:01+00:00,78.0,5.01,71.0,6.34,12.57,47.59359,-54.27349
2021-05-07 01:54:01+00:00,74.0,6.09,81.0,7.14,12.57,47.59359,-54.27349
2021-05-07 02:04:01+00:00,71.0,6.73,70.0,7.71,12.57,47.59359,-54.27349
2021-05-07 02:14:00+00:00,73.0,5.98,71.0,7.38,12.49,47.59359,-54.27349
2021-05-07 02:24:00+00:00,84.0,5.27,86.0,6.69,12.49,47.59359,-54.27349
2021-05-07 02:34:00+00:00,82.0,4.35,85.0,6.54,12.49,47.59359,-54.27349
2021-05-07 02:44:00+00:00,69.0,5.13,71.0,5.84,12.49,47.59359,-54.27349
2021-05-07 02:54:00+00:00,71.0,5.55,71.0,6.2,12.49,47.59359,-54.27349
2021-05-07 03:04:00+00:00,81.0,5.17,78.0,6.67,12.49,47.59359,-54.27349
2021-05-07 03:14:00+00:00,82.0,4.24,89.0,6.11,12.49,47.59359,-54.27349
2021-05-07 03:24:00+00:00,82.0,4.31,85.0,6.08,12.49,47.59359,-54.27349
2021-05-07 03:34:00+00:00,81.0,4.54,77.0,5.98,12.49,47.59359,-54.27349
2021-05-07 03:44:00+00:00,70.0,4.58,72.0,5.76,12.49,47.59359,-54.27349
2021-05-07 03:54:00+00:00,63.0,4.85,70.0,6.19,12.49,47.59359,-54.27349
2021-05-07 04:04:00+00:00,54.0,6.83,49.0,7.82,12.49,47.59359,-54.27349
2021-05-07 04:14:01+00:00,58.0,7.12,59.0,8.18,12.49,47.59359,-54.27349
2021-05-07 04:24:01+00:00,72.0,6.0,76.0,7.14,12.49,47.59359,-54.27349
2021-05-07 04:34:01+00:00,70.0,4.44,76.0,6.17,12.49,47.59359,-54.27349
2021-05-07 04:44:01+00:00,71.0,4.93,60.0,6.34,12.49,47.59359,-54.27349
2021-05-07 04:54:01+00:00,75.0,4.2,71.0,5.65,12.49,47.59359,-54.27349
2021-05-07 05:04:01+00:00,71.0,4.85,66.0,5.9,12.49,47.59359,-54.27349
2021-05-07 05:14:01+00:00,71.0,6.43,79.0,8.43,12.41,47.59359,-54.27349
2021-05-07 05:24:01+00:00,64.0,5.88,68.0,6.9,12.41,47.59359,-54.27349
2021-05-07 05:34:01+00:00,63.0,5.92,59.0,7.04,12.41,47.59359,-54.27349
2021-05-07 05:44:01+00:00,70.0,6.21,69.0,7.26,12.41,47.59359,-54.27349
2021-05-07 05:54:01+00:00,71.0,6.69,69.0,7.32,12.41,47.59359,-54.27349
2021-05-07 06:04:01+00:00,70.0,5.99,67.0,6.74,12.41,47.59359,-54.27349
2021-05-07 06:14:01+00:00,73.0,5.96,72.0,7.2,12.41,47.59359,-54.27349
2021-05-07 06:24:01+00:00,70.0,6.82,70.0,7.43,12.41,47.59359,-54.27349
2021-05-07 06:34:01+00:00,73.0,6.43,72.0,7.36,12.41,47.59359,-54.27349
2021-05-07 06:44:01+00:00,72.0,5.85,71.0,6.77,12.41,47.59359,-54.27349
2021-05-07 06:54:01+00:00,71.0,6.36,69.0,7.51,12.41,47.59359,-54.27349
2021-05-07 07:04:01+00:00,72.0,6.72,69.0,7.91,12.41,47.59359,-54.27349
2021-05-07 07:14:01+00:00,72.0,6.49,80.0,7.7,12.33,47.59359,-54.27349
2021-05-07 07:24:01+00:00,73.0,6.2,70.0,7.76,12.33,47.59359,-54.27349
2021-05-07 07:34:01+00:00,74.0,6.29,69.0,7.71,12.33,47.59359,-54.27349
2021-05-07 07:44:01+00:00,76.0,5.47,78.0,6.52,12.33,47.59359,-54.27349
2021-05-07 07:54:01+00:00,76.0,4.72,66.0,6.25,12.33,47.59359,-54.27349
2021-05-07 08:04:01+00:00,71.0,6.87,63.0,7.86,12.33,47.59359,-54.27349
2021-05-07 08:14:00+00:00,69.0,6.38,71.0,7.51,12.33,47.59359,-54.27349
2021-05-07 08:24:00+00:00,74.0,5.5,66.0,6.96,12.33,47.59359,-54.27349
2021-05-07 08:34:00+00:00,75.0,4.68,98.0,6.12,12.33,47.59359,-54.27349
2021-05-07 08:44:00+00:00,74.0,5.35,76.0,6.55,12.33,47.59359,-54.27349
2021-05-07 08:54:00+00:00,73.0,4.7,65.0,6.92,12.33,47.59359,-54.27349
2021-05-07 09:04:00+00:00,75.0,4.46,71.0,5.92,12.33,47.59359,-54.27349
2021-05-07 09:14:01+00:00,75.0,4.8,73.0,6.14,12.33,47.59359,-54.27349
2021-05-07 09:24:01+00:00,73.0,5.27,75.0,6.31,12.33,47.59359,-54.27349
2021-05-07 09:34:01+00:00,72.0,5.66,69.0,6.6,12.33,47.59359,-54.27349
2021-05-07 09:44:01+00:00,73.0,5.1,71.0,5.78,12.33,47.59359,-54.27349
2021-05-07 09:54:01+00:00,61.0,5.26,63.0,5.84,12.33,47.59359,-54.27349
2021-05-07 10:04:01+00:00,55.0,5.14,52.0,5.88,12.33,47.59359,-54.27349
2021-05-07 10:14:01+00:00,64.0,4.31,66.0,4.86,12.49,47.59359,-54.27349
2021-05-07 10:24:01+00:00,67.0,6.08,64.0,6.69,12.49,47.59359,-54.27349
2021-05-07 10:34:01+00:00,69.0,4.72,68.0,5.59,12.49,47.59359,-54.27349
2021-05-07 10:44:01+00:00,67.0,4.68,72.0,5.43,12.49,47.59359,-54.27349
2021-05-07 10:54:01+00:00,69.0,4.09,74.0,5.17,12.49,47.59359,-54.27349
2021-05-07 11:04:01+00:00,66.0,3.23,69.0,4.14,12.49,47.59359,-54.27349
2021-05-07 11:14:01+00:00,68.0,3.3,80.0,4.1,12.89,47.59359,-54.27349
2021-05-07 11:24:01+00:00,69.0,4.33,59.0,6.54,12.89,47.59359,-54.27349
2021-05-07 11:34:01+00:00,73.0,4.11,65.0,6.05,12.89,47.59359,-54.27349
2021-05-07 11:44:01+00:00,74.0,4.6,60.0,6.02,12.89,47.59359,-54.27349
2021-05-07 11:54:01+00:00,72.0,4.52,73.0,5.86,12.89,47.59359,-54.27349
2021-05-07 12:04:01+00:00,65.0,4.83,67.0,5.55,12.89,47.59359,-54.27349
2021-05-07 12:14:01+00:00,70.0,5.12,69.0,6.07,13.44,47.59359,-54.27349
2021-05-07 12:24:01+00:00,70.0,4.71,73.0,6.31,13.44,47.59359,-54.27349
2021-05-07 12:34:01+00:00,70.0,4.1,68.0,6.33,13.44,47.59359,-54.27349
2021-05-07 12:44:01+00:00,71.0,5.05,70.0,6.75,13.44,47.59359,-54.27349
2021-05-07 12:54:01+00:00,70.0,4.42,62.0,5.81,13.44,47.59359,-54.27349
2021-05-07 13:04:01+00:00,71.0,4.17,67.0,5.02,13.44,47.59359,-54.27349
2021-05-07 13:14:01+00:00,71.0,5.45,72.0,6.2,13.76,47.59359,-54.27349
2021-05-07 13:24:01+00:00,74.0,3.91,68.0,5.47,13.76,47.59359,-54.27349
2021-05-07 13:34:01+00:00,70.0,4.61,71.0,6.41,13.76,47.59359,-54.27349
2021-05-07 13:44:01+00:00,73.0,4.44,65.0,6.05,13.76,47.59359,-54.27349
2021-05-07 13:54:01+00:00,69.0,5.86,80.0,6.78,13.76,47.59359,-54.27349
2021-05-07 14:04:01+00:00,72.0,5.68,67.0,6.5,13.76,47.59359,-54.27349
2021-05-07 14:14:01+00:00,66.0,5.32,69.0,6.41,13.92,47.59359,-54.27349
2021-05-07 14:24:01+00:00,61.0,5.1,64.0,6.61,13.92,47.59359,-54.27349
2021-05-07 14:34:01+00:00,46.0,4.18,50.0,4.67,13.92,47.59359,-54.27349
2021-05-07 14:44:01+00:00,53.0,5.48,55.0,6.07,13.92,47.59359,-54.27349
2021-05-07 14:54:01+00:00,41.0,5.13,46.0,5.68,13.92,47.59359,-54.27349
2021-05-07 15:04:01+00:00,43.0,5.98,45.0,6.72,13.92,47.59359,-54.27349
2021-05-07 15:14:01+00:00,34.0,5.38,35.0,6.03,13.92,47.59359,-54.27349
2021-05-07 15:24:01+00:00,39.0,5.76,39.0,6.28,13.92,47.59359,-54.27349
2021-05-07 15:34:01+00:00,46.0,5.88,50.0,6.55,13.92,47.59359,-54.27349
2021-05-07 15:44:01+00:00,44.0,6.21,47.0,6.85,13.92,47.59359,-54.27349
2021-05-07 15:54:01+00:00,44.0,6.32,43.0,7.15,13.92,47.59359,-54.27349
2021-05-07 16:04:01+00:00,46.0,6.39,51.0,7.01,13.92,47.59359,-54.27349
2021-05-07 16:14:01+00:00,52.0,5.77,49.0,6.88,13.84,47.59359,-54.27349
2021-05-07 16:24:01+00:00,55.0,7.08,53.0,7.91,13.84,47.59359,-54.27349
2021-05-07 16:34:01+00:00,54.0,7.0,54.0,7.6,13.84,47.59359,-54.27349
2021-05-07 16:44:01+00:00,52.0,7.08,52.0,7.77,13.84,47.59359,-54.27349
2021-05-07 16:54:01+00:00,49.0,6.64,51.0,7.39,13.84,47.59359,-54.27349
2021-05-07 17:04:01+00:00,49.0,6.79,46.0,7.23,13.84,47.59359,-54.27349
2021-05-07 17:14:01+00:00,45.0,6.94,44.0,7.62,13.76,47.59359,-54.27349
2021-05-07 17:24:01+00:00,38.0,5.94,37.0,6.45,13.76,47.59359,-54.27349
2021-05-07 17:34:01+00:00,43.0,5.79,45.0,6.43,13.76,47.59359,-54.27349
2021-05-07 17:44:01+00:00,43.0,6.25,44.0,7.06,13.76,47.59359,-54.27349
2021-05-07 17:54:01+00:00,44.0,5.79,50.0,6.58,13.76,47.59359,-54.27349
2021-05-07 18:04:01+00:00,41.0,5.22,50.0,5.91,13.76,47.59359,-54.27349
2021-05-07 18:14:01+00:00,46.0,5.55,46.0,6.31,13.76,47.59359,-54.27349
2021-05-07 18:24:01+00:00,47.0,6.61,46.0,7.18,13.76,47.59359,-54.27349
2021-05-07 18:34:01+00:00,50.0,5.5,39.0,6.6,13.76,47.59359,-54.27349
2021-05-07 18:44:01+00:00,49.0,5.25,51.0,5.71,13.76,47.59359,-54.27349
2021-05-07 18:54:01+00:00,49.0,4.41,51.0,5.09,13.76,47.59359,-54.27349
2021-05-07 19:04:01+00:00,48.0,5.12,48.0,5.56,13.76,47.59359,-54.27349
2021-05-07 19:14:01+00:00,50.0,4.6,49.0,5.06,13.84,47.59359,-54.27349
2021-05-07 19:24:01+00:00,59.0,4.44,55.0,5.65,13.84,47.59359,-54.27349
2021-05-07 19:34:01+00:00,70.0,6.47,68.0,7.63,13.84,47.59359,-54.27349
2021-05-07 19:44:01+00:00,72.0,6.07,73.0,7.24,13.84,47.59359,-54.27349
2021-05-07 19:54:01+00:00,75.0,5.48,78.0,7.63,13.84,47.59359,-54.27349
2021-05-07 20:04:01+00:00,74.0,6.57,76.0,7.99,13.84,47.59359,-54.27349
2021-05-07 20:14:01+00:00,72.0,5.87,70.0,7.4,13.76,47.59359,-54.27349
2021-05-07 20:24:01+00:00,74.0,5.99,66.0,7.87,13.76,47.59359,-54.27349
2021-05-07 20:34:01+00:00,85.0,3.45,79.0,5.02,13.76,47.59359,-54.27349
2021-05-07 20:44:01+00:00,78.0,4.52,72.0,6.15,13.76,47.59359,-54.27349
2021-05-07 20:54:01+00:00,83.0,3.73,70.0,5.67,13.76,47.59359,-54.27349
2021-05-07 21:04:01+00:00,75.0,4.23,70.0,5.81,13.76,47.59359,-54.27349
2021-05-07 21:14:00+00:00,82.0,3.23,83.0,4.65,13.6,47.59359,-54.27349
2021-05-07 21:24:00+00:00,106.0,2.49,119.0,3.98,13.6,47.59359,-54.27349
2021-05-07 21:34:00+00:00,90.0,3.45,82.0,5.45,13.6,47.59359,-54.27349
2021-05-07 21:44:00+00:00,97.0,2.99,103.0,6.41,13.6,47.59359,-54.27349
2021-05-07 21:54:00+00:00,90.0,2.98,104.0,5.27,13.6,47.59359,-54.27349
2021-05-07 22:04:00+00:00,107.0,4.02,97.0,6.24,13.6,47.59359,-54.27349
2021-05-07 22:14:01+00:00,97.0,1.9,64.0,2.95,13.13,47.59359,-54.27349
2021-05-07 22:24:01+00:00,98.0,2.12,94.0,3.93,13.13,47.59359,-54.27349
2021-05-07 22:34:01+00:00,95.0,2.5,107.0,4.02,13.13,47.59359,-54.27349
2021-05-07 22:44:01+00:00,92.0,1.89,67.0,3.34,13.13,47.59359,-54.27349
2021-05-07 22:54:01+00:00,92.0,2.43,73.0,3.71,13.13,47.59359,-54.27349
2021-05-07 23:04:01+00:00,87.0,1.89,95.0,3.33,13.13,47.59359,-54.27349
2021-05-07 23:14:01+00:00,75.0,2.18,62.0,3.39,12.73,47.59359,-54.27349
2021-05-07 23:24:01+00:00,91.0,3.23,97.0,5.13,12.73,47.59359,-54.27349
2021-05-07 23:34:01+00:00,84.0,2.71,95.0,6.1,12.73,47.59359,-54.27349
2021-05-07 23:44:01+00:00,73.0,3.94,83.0,5.02,12.73,47.59359,-54.27349
2021-05-07 23:54:01+00:00,82.0,3.95,80.0,6.14,12.73,47.59359,-54.27349
